Regional Weather Roundup
Issued by NWS

Home | Current Version | Previous Version | Graphics & Text | Print | Product List | Glossary On
Versions: 1 2 3 4 5 6 7 8 9 10 11 12 13 14 15 16 17 18 19 20 21 22 23 24 25 26 27 28
000
ASUS45 KTFX 230210
RWRMT
MONTANA REGIONAL WEATHER ROUNDUP
NATIONAL WEATHER SERVICE GREAT FALLS MT
700 PM MST WED NOV 22 2017

NOTE: "FAIR" INDICATES FEW OR NO CLOUDS BELOW 12000 FEET WITH NO
SIGNIFICANT WEATHER AND/OR OBSTRUCTIONS TO VISIBILITY.

MTZ001>007-043-230300-
WEST OF THE DIVIDE

CITY           SKY/WX    TMP DP  RH WIND       PRES   REMARKS
KALISPELL      LGT RAIN  50  50 100 S12       30.08F
MISSOULA       FAIR      40  40 100 CALM      30.17F
BUTTE          FAIR      44  35  70 NE6       30.24F
MULLAN PASS    FOG       42  40  92 VRB6      30.17F VSB 1/4
ANACONDA         N/A     48  39  71 S9        30.20F
DEER LODGE       N/A     50  39  66 SW5       30.20F
EUREKA           N/A     54  48  82 MISG      30.03F
HAMILTON         N/A     54  45  71 S14       30.17F
LIBBY            N/A    N/A N/A N/A CALM      30.06F
PLAINS           N/A     44  41  89 CALM      30.11F VSB 0
RONAN            N/A     52  48  86 SE2       30.15F
$$

MTZ008-052>055-230300-
SOUTHWEST MONTANA

CITY           SKY/WX    TMP DP  RH WIND       PRES   REMARKS
BOZEMAN        FAIR      46  37  71 S6        30.20S
DILLON         FAIR      45  36  70 SW12      30.26R
W YELLOWSTONE  MOCLDY    39  37  93 CALM      30.39R
ENNIS          CLOUDY    45  37  76 S16       30.31S
TWIN BRIDGES     N/A     49  36  61 CALM      30.20S
$$

MTZ009-010-012-014-046-048-049-054-230300-
EAST SLOPES AND CENTRAL MONTANA

CITY           SKY/WX    TMP DP  RH WIND       PRES   REMARKS
CUT BANK       FAIR      53  43  68 SW23G30   29.95F
GREAT FALLS    FAIR      58  41  53 SW24      30.03R
MALMSTROM AFB  FAIR      56  42  58 SW26G33   30.04R
HELENA         FAIR      55  41  59 S9        30.11F
BOWMANS CRNR   FAIR      49  41  74 SW9       30.05S
CHOTEAU          N/A     57  39  51 SW13      30.03R
FAIRFIELD      FAIR      56  40  54 SW21      30.01S
POWER          FAIR      53  41  62 S17       30.02S
RAYNESFORD     FAIR      59  40  49 SW26G38   30.05F
ULM            MOCLDY    55  42  60 S10       30.07S
$$

MTZ011-013-016-021-045-047-050-051-230300-
NORTH CENTRAL MONTANA

CITY           SKY/WX    TMP DP  RH WIND       PRES   REMARKS
HAVRE          FAIR      44  39  82 SW13      29.93F
LEWISTOWN      FAIR      53  40  61 SW21      30.05F
N BAR RANCH    FAIR      54  36  50 W6G14     30.07F
CHINOOK          N/A     45  39  81 CALM      29.92F
DENTON         FAIR      55  41  59 SW17      29.99F
GEYSER         FAIR      57  40  53 W32G41    29.98S
GRASS RANGE    FAIR      57  39  51 N7        30.00F
STANFORD       FAIR      58  38  48 W30G44    30.02R
WINIFRED       FAIR      53  40  62 SW6       30.01S
$$

MTZ017>020-022>027-061-062-230300-
NORTHEAST MONTANA

CITY           SKY/WX    TMP DP  RH WIND       PRES   REMARKS
GLASGOW        FAIR      42  36  79 S3        29.94S
GLENDIVE       FAIR      38  34  85 W8        29.99R
JORDAN           N/A     45  38  76 NW6       29.98S
SIDNEY         FAIR      33  30  88 NW7       29.98R WCI  27
WOLF POINT     FAIR      30  27  88 NE3       29.96S
MALTA          CLEAR     37  34  87 W3        29.93F
PLENTYWOOD       N/A     30  25  80 CALM      29.94S
POPLAR           N/A     36  30  80 N5        29.97R
SCOBEY           N/A     27  17  65 CALM      29.92F
$$

MTZ028>42-056>058-230300-
SOUTHCENTRAL AND SOUTHEAST MONTANA

CITY           SKY/WX    TMP DP  RH WIND       PRES   REMARKS
BAKER          FAIR      46  38  73 W12       30.01R
BILLINGS       FAIR      54  39  57 SW20      30.10R
LIVINGSTON     FAIR      56  40  55 SW21G28   30.15F
MILES CITY     MOCLDY    51  42  71 W9        30.01R
BIG TIMBER     PTCLDY    55  39  54 W12G20    30.18F
FORSYTH          N/A     57  39  51 W6        30.03R
HARLOWTON      FAIR      53  39  59 W21G29    30.09S
LAUREL           N/A     48  37  66 SW12      30.11S
$$

REGIONAL REPORTS...DAKOTAS

CITY           SKY/WX    TMP DP  RH WIND       PRES   REMARKS
WILLISTON      FAIR      30  25  81 NW3       29.97R
MINOT          FAIR      22  18  85 NW6       29.97R WCI  14
DICKINSON      FAIR      33  30  88 W7        29.95R WCI  27
BEACH          FAIR      36  34  93 CALM      30.01S
CROSBY         FAIR      19  19 100 SW3       29.98S
TIOGA          FAIR      25  25 100 CALM      29.96F
WATFORD CITY   FAIR      28  25  86 CALM      29.97R
BISMARCK       FAIR      39  28  64 N7        29.98R
GRAND FORKS    CLOUDY    28  21  75 CALM      29.95R
FARGO          FAIR      27  16  63 S7        29.92R WCI  19
BUFFALO SD       N/A     50  39  66 NW12      29.96R
RAPID CITY     FAIR      48  36  63 NW5       30.05R
$$

REGIONAL REPORTS...WYOMING/IDAHO/WASHINGTON

CITY           SKY/WX    TMP DP  RH WIND       PRES   REMARKS
GILLETTE       MOCLDY    46  38  73 CALM      30.14R
SHERIDAN       FAIR      45  36  70 CALM      30.12R
BUFFALO WY     FAIR      49  32  52 SW5       30.17R
CODY           MOCLDY    58  38  47 W14G23    30.23R
YELLOWSTONE LA   N/A     37  36  96 CALM      30.42F
IDAHO FALLS    FAIR      42  41  96 N6        30.36F
SALMON         CLOUDY    41  40  96 CALM      30.32R FOG
BOISE          FAIR      54  51  90 CALM      30.23S
SPOKANE        CLOUDY    54  52  93 S12       30.04F
$$

REGIONAL REPORTS...ALBERTA

CITY           SKY/WX    TMP DP  RH WIND       PRES   REMARKS
EDMONTON       CLEAR     19  12  73 E5        29.66F
CALGARY        MOCLDY    41  32  70 E6        29.75F
LETHBRIDGE     PTCLDY    50  39  66 SW15      29.86F
MEDICINE HAT   PTCLDY    46  39  76 S15G22    29.80F
$$

REGIONAL REPORTS...SASKATCHEWAN

CITY           SKY/WX    TMP DP  RH WIND       PRES   REMARKS
SWIFT CURRENT  CLEAR     28  25  86 S13       29.83F WCI  18
REGINA         CLOUDY    19  19 100 SW7       29.93F WCI  10
SASKATOON      CLOUDY    19  14  79 S12       29.88F WCI   7
$$




USA.gov is the U.S. government's official web portal to all federal, state and local government web resources and services.